Soldotna, AK

8:31 PM AKDT on March 22, 2017 (GMT -0800)
Soldotna

Weather History for PASX - June, 2012

Change the Weather History Date:

Monday, June 18, 2012

  Actual Average Record
Temperature  
Mean Temperature 55 °F -  
Max Temperature 62 °F 57 °F 78 °F (1983)
Min Temperature 48 °F 43 °F 35 °F (1955)
Degree Days  
Heating Degree Days 10    
Growing Degree Days 5 (Base 50)    
Moisture  
Dew Point 45 °F    
Average Humidity 65    
Maximum Humidity 87    
Minimum Humidity 52    
Precipitation  
Precipitation 0.00 in - - ()
Sea Level Pressure  
Sea Level Pressure 29.89 in    
Wind  
Wind Speed 5 mph (West)    
Max Wind Speed 15 mph    
Max Gust Speed -    
Visibility 10 miles    
Events      
Averages and records for this station are not official NWS values.
T = Trace of Precipitation, MM = Missing Value Source: NWS Daily Summary

Daily Weather History Graph

Daily Weather History Graph

Search for Another Location

Airport or City:

Trip Planner

Search our weather history database for the weather conditions in past years. The results will help you decide how hot, cold, wet, or windy it might be!

Date:

Astronomy

Jun. 18, 2012 Rise Set
Actual Time 4:33 AM AKDT 11:37 PM AKDT
Civil Twilight 2:25 AM AKDT 1:46 AM AKDT
Nautical Twilight Sun does not rise Sun does not rise
Astronomical Twilight Sun does not rise Sun does not rise
Moon 4:14 AM AKDT (6/18) 10:45 PM AKDT (6/18)
Length of Visible Light 23h 20m
Length of Day
19h 03m
Waning Crescent, 1% of the Moon is Illuminated
Jun 18
Waning Crescent
Jun 19
New
Jun 26
First Quarter
Jul 3
Full
Jul 10
Last Quarter

Hourly Weather History & Observations

Time (AKDT) Temp. Dew Point Humidity Pressure Visibility Wind Dir Wind Speed Gust Speed Precip Events Conditions
12:16 AM 57.2 °F 44.6 °F 63% 29.82 in 10.0 mi South 9.2 mph - N/A   Clear
12:36 AM 57.2 °F 44.6 °F 63% 29.83 in 10.0 mi Calm Calm - N/A   Clear
12:56 AM 57.2 °F 44.6 °F 63% 29.84 in 10.0 mi SE 4.6 mph - N/A   Clear
1:16 AM 55.4 °F 44.6 °F 67% 29.84 in 10.0 mi South 5.8 mph - N/A   Clear
1:36 AM 55.4 °F 44.6 °F 67% 29.85 in 10.0 mi South 4.6 mph - N/A   Clear
1:56 AM 55.4 °F 44.6 °F 67% 29.86 in 10.0 mi ENE 4.6 mph - N/A   Clear
2:16 AM 53.6 °F 42.8 °F 67% 29.85 in 10.0 mi South 6.9 mph - N/A   Scattered Clouds
2:36 AM 55.4 °F 44.6 °F 67% 29.85 in 10.0 mi South 3.5 mph - N/A   Overcast
2:56 AM 55.4 °F 44.6 °F 67% 29.86 in 10.0 mi SSE 3.5 mph - N/A   Overcast
3:16 AM 55.4 °F 44.6 °F 67% 29.86 in 10.0 mi Calm Calm - N/A   Overcast
3:36 AM 55.4 °F 44.6 °F 67% 29.86 in 10.0 mi Calm Calm - N/A   Overcast
3:56 AM 55.4 °F 44.6 °F 67% 29.87 in 10.0 mi Calm Calm - N/A   Overcast
4:16 AM 51.8 °F 44.6 °F 76% 29.87 in 10.0 mi Calm Calm - N/A   Scattered Clouds
4:36 AM 51.8 °F 44.6 °F 76% 29.88 in 10.0 mi Calm Calm - N/A   Scattered Clouds
4:56 AM 48.2 °F 42.8 °F 82% 29.88 in 10.0 mi Calm Calm - N/A   Scattered Clouds
5:16 AM 51.8 °F 44.6 °F 76% 29.88 in 10.0 mi Calm Calm - N/A   Mostly Cloudy
5:36 AM 48.2 °F 44.6 °F 87% 29.88 in 10.0 mi Calm Calm - N/A   Overcast
5:56 AM 48.2 °F 42.8 °F 82% 29.88 in 10.0 mi Calm Calm - N/A   Overcast
6:16 AM 50.0 °F 44.6 °F 82% 29.88 in 10.0 mi Calm Calm - N/A   Overcast
6:36 AM 50.0 °F 44.6 °F 82% 29.89 in 10.0 mi Calm Calm - N/A   Scattered Clouds
6:56 AM 50.0 °F 44.6 °F 82% 29.89 in 10.0 mi Calm Calm - N/A   Clear
7:16 AM 51.8 °F 44.6 °F 76% 29.89 in 10.0 mi WNW 5.8 mph - N/A   Mostly Cloudy
7:36 AM 51.8 °F 44.6 °F 76% 29.89 in 10.0 mi West 3.5 mph - N/A   Overcast
7:56 AM 51.8 °F 46.4 °F 82% 29.90 in 10.0 mi Calm Calm - N/A   Overcast
8:16 AM 53.6 °F 46.4 °F 77% 29.90 in 10.0 mi Calm Calm - N/A   Overcast
8:36 AM 53.6 °F 46.4 °F 77% 29.90 in 10.0 mi Calm Calm - N/A   Overcast
8:56 AM 55.4 °F 46.4 °F 72% 29.90 in 10.0 mi WNW 4.6 mph - N/A   Overcast
9:16 AM 55.4 °F 46.4 °F 72% 29.91 in 10.0 mi West 4.6 mph - N/A   Scattered Clouds
9:36 AM 55.4 °F 46.4 °F 72% 29.91 in 10.0 mi West 4.6 mph - N/A   Clear
9:56 AM 55.4 °F 46.4 °F 72% 29.91 in 10.0 mi West 4.6 mph - N/A   Clear
10:16 AM 55.4 °F 46.4 °F 72% 29.91 in 10.0 mi WNW 5.8 mph - N/A   Clear
10:36 AM 57.2 °F 46.4 °F 67% 29.91 in 10.0 mi WNW 5.8 mph - N/A   Clear
10:56 AM 57.2 °F 46.4 °F 67% 29.91 in 10.0 mi WNW 5.8 mph - N/A   Partly Cloudy
11:16 AM 57.2 °F 46.4 °F 67% 29.91 in 10.0 mi West 4.6 mph - N/A   Partly Cloudy
11:36 AM 57.2 °F 46.4 °F 67% 29.91 in 10.0 mi West 6.9 mph - N/A   Clear
11:56 AM 59.0 °F 46.4 °F 63% 29.91 in 10.0 mi West 4.6 mph - N/A   Clear
12:16 PM 59.0 °F 46.4 °F 63% 29.91 in 10.0 mi NW 3.5 mph - N/A   Clear
12:36 PM 60.8 °F 46.4 °F 59% 29.91 in 10.0 mi WNW 5.8 mph - N/A   Partly Cloudy
12:56 PM 60.8 °F 44.6 °F 55% 29.91 in 10.0 mi WNW 11.5 mph - N/A   Scattered Clouds
1:16 PM 62.6 °F 46.4 °F 55% 29.90 in 10.0 mi WNW 8.1 mph - N/A   Scattered Clouds
1:36 PM 62.6 °F 46.4 °F 55% 29.90 in 10.0 mi WNW 6.9 mph - N/A   Partly Cloudy
1:56 PM 62.6 °F 46.4 °F 55% 29.90 in 10.0 mi West 10.4 mph - N/A   Clear
2:16 PM 62.6 °F 46.4 °F 55% 29.90 in 10.0 mi WNW 10.4 mph - N/A   Mostly Cloudy
2:36 PM 62.6 °F 46.4 °F 55% 29.90 in 10.0 mi WNW 11.5 mph - N/A   Overcast
2:56 PM 60.8 °F 46.4 °F 59% 29.90 in 10.0 mi WNW 12.7 mph - N/A   Overcast
3:16 PM 62.6 °F 44.6 °F 52% 29.90 in 10.0 mi West 10.4 mph - N/A   Scattered Clouds
3:36 PM 62.6 °F 44.6 °F 52% 29.90 in 10.0 mi West 11.5 mph - N/A   Clear
3:56 PM 62.6 °F 46.4 °F 55% 29.89 in 10.0 mi West 10.4 mph - N/A   Clear
4:16 PM 62.6 °F 44.6 °F 52% 29.89 in 10.0 mi West 15.0 mph - N/A   Clear
4:36 PM 62.6 °F 46.4 °F 55% 29.89 in 10.0 mi West 12.7 mph - N/A   Clear
4:56 PM 62.6 °F 44.6 °F 52% 29.90 in 10.0 mi West 11.5 mph - N/A   Clear
5:16 PM 62.6 °F 46.4 °F 55% 29.90 in 10.0 mi WNW 11.5 mph - N/A   Clear
5:36 PM 62.6 °F 44.6 °F 52% 29.90 in 10.0 mi West 11.5 mph - N/A   Scattered Clouds
5:56 PM 62.6 °F 44.6 °F 52% 29.90 in 10.0 mi WNW 8.1 mph - N/A   Overcast
6:16 PM 62.6 °F 44.6 °F 52% 29.91 in 10.0 mi North 3.5 mph - N/A   Overcast
6:36 PM 62.6 °F 44.6 °F 52% 29.90 in 10.0 mi Calm Calm - N/A   Overcast
6:56 PM 62.6 °F 46.4 °F 55% 29.89 in 10.0 mi WSW 8.1 mph - N/A   Overcast
7:16 PM 60.8 °F 46.4 °F 59% 29.90 in 10.0 mi West 5.8 mph - N/A   Overcast
7:36 PM 62.6 °F 46.4 °F 55% 29.90 in 10.0 mi NW 4.6 mph - N/A   Scattered Clouds
7:56 PM 62.6 °F 46.4 °F 55% 29.90 in 10.0 mi WSW 5.8 mph - N/A   Partly Cloudy
8:36 PM 62.6 °F 46.4 °F 55% 29.91 in 10.0 mi West 8.1 mph - N/A   Mostly Cloudy
8:56 PM 60.8 °F 46.4 °F 59% 29.92 in 10.0 mi West 6.9 mph - N/A   Mostly Cloudy
9:16 PM 60.8 °F 44.6 °F 55% 29.92 in 10.0 mi WSW 4.6 mph - N/A   Mostly Cloudy
9:36 PM 59.0 °F 44.6 °F 59% 29.92 in 10.0 mi West 4.6 mph - N/A   Mostly Cloudy
9:56 PM 57.2 °F 44.6 °F 63% 29.94 in 10.0 mi NW 9.2 mph - N/A   Mostly Cloudy
10:16 PM 55.4 °F 42.8 °F 63% 29.94 in 10.0 mi NW 8.1 mph - N/A   Mostly Cloudy
10:36 PM 55.4 °F 42.8 °F 63% 29.94 in 10.0 mi West 6.9 mph - N/A   Scattered Clouds
10:56 PM 55.4 °F 42.8 °F 63% 29.93 in 10.0 mi SW 6.9 mph - N/A   Clear
11:16 PM 55.4 °F 42.8 °F 63% 29.93 in 10.0 mi SW 4.6 mph - N/A   Clear
11:36 PM 55.4 °F 42.8 °F 63% 29.95 in 10.0 mi Calm Calm - N/A   Clear
11:56 PM 55.4 °F 42.8 °F 63% 29.95 in 10.0 mi Calm Calm - N/A   Clear